Simultaneous Nadir Overpasses (SNOs) Predictions

Prediction of SNOs between METOP-B and TERRA Satellite Orbit:

Table of predicted SNOs for the next 14.0 days since TLE Epoch: 2/18/2023
Index Date (METOP-B) Time (METOP-B) Lat,Lon (METOP-B) SZA (METOP-B ) Date (TERRA) Time (TERRA) Lat,Lon (TERRA) SZA (TERRA ) Distance(km) Time Diff (sec)
1 02/18/2023 12:49:49 -80.94,-157.28 86.18 02/18/2023 12:49:59 -80.95,-157.11 86.15 3.16 10
2 02/18/2023 13:40:27 80.98, 10.95 93.93 02/18/2023 13:39:20 80.98, 10.97 93.90 0.42 67
3 02/21/2023 04:10:49 80.92, 152.00 92.84 02/21/2023 04:12:00 80.92, 151.95 92.85 1.04 71
4 02/21/2023 05:01:27 -80.96, -39.87 87.08 02/21/2023 05:01:21 -80.95, -39.99 87.10 2.31 6
5 02/23/2023 20:22:28 80.91, -91.07 91.85 02/23/2023 20:23:21 80.91, -90.95 91.88 2.14 53
6 02/23/2023 21:13:07 -80.95, 77.07 88.07 02/23/2023 21:12:43 -80.95, 77.16 88.07 1.48 24
7 02/26/2023 12:34:06 80.93, 26.48 90.93 02/26/2023 12:34:41 80.94, 26.53 90.95 1.28 35
8 02/26/2023 13:24:45 -80.97,-165.36 88.99 02/26/2023 13:24:03 -80.98,-165.32 88.99 1.04 42
9 03/01/2023 04:45:45 80.93, 143.56 89.93 03/01/2023 04:46:01 80.94, 143.71 89.96 2.76 16
10 03/01/2023 05:36:24 -80.97, -48.26 89.98 03/01/2023 05:35:23 -80.98, -48.10 89.98 2.95 61
11 03/03/2023 20:07:16 -80.20, 82.45 92.51 03/03/2023 20:08:30 -79.95, 83.40 92.67 33.10 74



Historial Predications of SNOs between METOP-B and TERRA
